Location: Unspecified
(47.6577°N, 23.5639°E)
Time: 20:37:59
(UTC+03:00)

ISS - Pass Details

Date: 07 February 2017
Orbit: 402 x 409 km, 51.6° (Epoch: 25 May)

Event Time Altitude Azimuth Distance (km) Brightness Sun altitude
Rises 18:03:23 0° 271° (W) 2,338 1.8 -5.1°
Reaches altitude 10° 18:05:32 10° 279° (W) 1,474 0.3 -5.5°
Maximum altitude 18:08:42 42° 352° (N) 592 -3.0 -6.0°
Drops below altitude 10° 18:11:52 10° 65° (ENE) 1,468 -1.7 -6.5°
Enters shadow 18:12:10 - 67° (ENE) 1,585 -1.5 -6.5°
